When you browse on this site, cookies collect data to enhance your experience and personalize the content and advertising you see.
Visit our Privacy Policy to learn more. By continuing to use the site, you agree to this use of cookies and data.
  • In Deutschland
  • Länderverzeichnis
  • Für 7 Tage
  • Wassertemperatur
  • Wetterkarte
  • Widgets
  • user-avatar
    Anmelden

    Stündliche Wetter Matlock

    Heute, 24 September, Dienstag

    Zeit Temperatur Niederschläge Wind Luftdruck Luftfeuchtigkeit
    00:00 +16°C° 0 mm 3 m/S 737 mmHg 95%
    01:00 +16°C° 0 mm 3 m/S 736 mmHg 95%
    02:00 +16°C° 0 mm 3 m/S 736 mmHg 95%
    03:00 +16°C° 0 mm 3 m/S 735 mmHg 95%
    04:00 +16°C° 0.1 mm 3 m/S 734 mmHg 95%
    05:00 +14°C° 0.1 mm 3 m/S 734 mmHg 96%
    06:00 +14°C° 0.1 mm 3 m/S 733 mmHg 97%
    07:00 +14°C° 2.7 mm 3 m/S 733 mmHg 97%
    08:00 +14°C° 2.7 mm 3 m/S 732 mmHg 96%
    09:00 +16°C° 2.7 mm 3 m/S 732 mmHg 96%
    10:00 +16°C° 2.8 mm 3 m/S 731 mmHg 95%
    11:00 +16°C° 2.8 mm 2 m/S 731 mmHg 95%
    12:00 +16°C° 2.8 mm 2 m/S 731 mmHg 94%
    13:00 +16°C° 0.3 mm 3 m/S 731 mmHg 90%
    14:00 +17°C° 0.3 mm 4 m/S 731 mmHg 86%
    15:00 +16°C° 0.3 mm 5 m/S 731 mmHg 82%
    16:00 +16°C° 0.1 mm 5 m/S 731 mmHg 84%
    17:00 +15°C° 0.1 mm 4 m/S 731 mmHg 86%
    18:00 +14°C° 0.1 mm 3 m/S 731 mmHg 88%
    19:00 +13°C° 0 mm 3 m/S 731 mmHg 89%
    20:00 +13°C° 0 mm 4 m/S 731 mmHg 91%
    21:00 +12°C° 0 mm 4 m/S 732 mmHg 93%
    22:00 +12°C° 0 mm 4 m/S 731 mmHg 93%
    23:00 +12°C° 0 mm 4 m/S 731 mmHg 93%

    Morgen, 25 September, Mittwoch

    Zeit Temperatur Niederschläge Wind Luftdruck Luftfeuchtigkeit
    00:00 +12°C° 0 mm 4 m/S 731 mmHg 93%
    01:00 +12°C° 0.1 mm 4 m/S 731 mmHg 93%
    02:00 +12°C° 0.1 mm 3 m/S 730 mmHg 94%
    03:00 +12°C° 0.1 mm 3 m/S 730 mmHg 94%
    04:00 +13°C° 0.2 mm 3 m/S 730 mmHg 95%
    05:00 +14°C° 0.2 mm 2 m/S 730 mmHg 96%
    06:00 +14°C° 0.2 mm 2 m/S 730 mmHg 96%
    07:00 +14°C° 0.1 mm 1 m/S 730 mmHg 95%
    08:00 +14°C° 0.1 mm 1 m/S 731 mmHg 93%
    09:00 +14°C° 0.1 mm 0 m/S 731 mmHg 92%
    10:00 +15°C° 0.1 mm 1 m/S 732 mmHg 90%
    11:00 +16°C° 0.1 mm 1 m/S 732 mmHg 87%
    12:00 +16°C° 0.1 mm 2 m/S 732 mmHg 85%
    13:00 +17°C° 0.2 mm 2 m/S 732 mmHg 83%
    14:00 +17°C° 0.2 mm 3 m/S 733 mmHg 81%
    15:00 +17°C° 0.2 mm 3 m/S 733 mmHg 80%
    16:00 +17°C° 0.1 mm 3 m/S 733 mmHg 83%
    17:00 +16°C° 0.1 mm 3 m/S 733 mmHg 86%
    18:00 +15°C° 0.1 mm 2 m/S 734 mmHg 89%
    19:00 +14°C° 0 mm 2 m/S 734 mmHg 90%
    20:00 +14°C° 0 mm 2 m/S 734 mmHg 91%
    21:00 +13°C° 0 mm 2 m/S 734 mmHg 93%
    22:00 +13°C° 0 mm 2 m/S 734 mmHg 93%
    23:00 +12°C° 0 mm 3 m/S 734 mmHg 93%

    übermorgen, 26 September, Donnerstag

    Zeit Temperatur Niederschläge Wind Luftdruck Luftfeuchtigkeit
    00:00 +12°C° 0 mm 3 m/S 734 mmHg 93%
    01:00 +13°C° 0.6 mm 4 m/S 734 mmHg 94%
    02:00 +13°C° 0.6 mm 4 m/S 733 mmHg 95%
    03:00 +14°C° 0.6 mm 5 m/S 733 mmHg 96%
    04:00 +14°C° 0.4 mm 5 m/S 733 mmHg 94%
    05:00 +14°C° 0.4 mm 5 m/S 733 mmHg 93%
    06:00 +15°C° 0.4 mm 5 m/S 733 mmHg 91%
    07:00 +15°C° 0.1 mm 6 m/S 733 mmHg 88%
    08:00 +15°C° 0.1 mm 6 m/S 733 mmHg 84%
    09:00 +15°C° 0.1 mm 6 m/S 734 mmHg 81%
    10:00 +15°C° 0.1 mm 6 m/S 734 mmHg 76%
    11:00 +16°C° 0.1 mm 6 m/S 734 mmHg 72%
    12:00 +16°C° 0.1 mm 6 m/S 734 mmHg 68%
    13:00 +15°C° 0.1 mm 6 m/S 734 mmHg 69%
    14:00 +15°C° 0.1 mm 6 m/S 734 mmHg 70%
    15:00 +14°C° 0.1 mm 7 m/S 734 mmHg 71%
    16:00 +14°C° 0.1 mm 6 m/S 734 mmHg 74%
    17:00 +13°C° 0.1 mm 6 m/S 734 mmHg 77%
    18:00 +12°C° 0.1 mm 5 m/S 734 mmHg 79%
    19:00 +12°C° 0 mm 5 m/S 734 mmHg 80%
    20:00 +10°C° 0 mm 6 m/S 735 mmHg 80%
    21:00 +10°C° 0 mm 6 m/S 735 mmHg 81%
    22:00 +10°C° 0 mm 6 m/S 735 mmHg 83%
    23:00 +10°C° 0 mm 6 m/S 735 mmHg 85%

    27 September, Freitag

    Zeit Temperatur Niederschläge Wind Luftdruck Luftfeuchtigkeit
    00:00 +9°C° 0 mm 6 m/S 735 mmHg 87%
    01:00 +10°C° 0.1 mm 6 m/S 734 mmHg 87%
    02:00 +10°C° 0.1 mm 6 m/S 734 mmHg 86%
    03:00 +10°C° 0.1 mm 6 m/S 734 mmHg 86%
    04:00 +10°C° 0.4 mm 7 m/S 733 mmHg 87%
    05:00 +10°C° 0.4 mm 7 m/S 733 mmHg 88%
    06:00 +10°C° 0.4 mm 8 m/S 732 mmHg 89%
    07:00 +11°C° 0.3 mm 8 m/S 733 mmHg 86%
    08:00 +11°C° 0.3 mm 8 m/S 733 mmHg 84%
    09:00 +12°C° 0.3 mm 7 m/S 733 mmHg 81%
    10:00 +12°C° 0.1 mm 7 m/S 734 mmHg 77%
    11:00 +12°C° 0.1 mm 7 m/S 734 mmHg 73%
    12:00 +12°C° 0.1 mm 7 m/S 734 mmHg 69%
    13:00 +12°C° 0.2 mm 7 m/S 734 mmHg 72%
    14:00 +12°C° 0.2 mm 7 m/S 734 mmHg 74%
    15:00 +12°C° 0.2 mm 7 m/S 734 mmHg 77%
    16:00 +11°C° 0.3 mm 7 m/S 734 mmHg 80%
    17:00 +11°C° 0.3 mm 7 m/S 734 mmHg 82%
    18:00 +11°C° 0.3 mm 6 m/S 734 mmHg 85%
    19:00 +11°C° 0.3 mm 6 m/S 734 mmHg 85%
    20:00 +11°C° 0.3 mm 6 m/S 734 mmHg 86%
    21:00 +10°C° 0.3 mm 6 m/S 735 mmHg 86%
    22:00 +10°C° 0.1 mm 6 m/S 735 mmHg 86%
    23:00 +10°C° 0.1 mm 6 m/S 735 mmHg 87%

    28 September, Samstag

    Zeit Temperatur Niederschläge Wind Luftdruck Luftfeuchtigkeit
    00:00 +9°C° 0.1 mm 6 m/S 735 mmHg 88%
    01:00 +9°C° 0 mm 6 m/S 735 mmHg 88%
    02:00 +9°C° 0 mm 6 m/S 736 mmHg 88%
    03:00 +8°C° 0 mm 5 m/S 736 mmHg 89%
    04:00 +8°C° 0 mm 5 m/S 736 mmHg 89%
    05:00 +8°C° 0 mm 5 m/S 737 mmHg 90%
    06:00 +8°C° 0 mm 5 m/S 737 mmHg 91%
    07:00 +9°C° 0 mm 5 m/S 737 mmHg 88%
    08:00 +10°C° 0 mm 6 m/S 738 mmHg 85%
    09:00 +11°C° 0 mm 6 m/S 738 mmHg 81%
    10:00 +13°C° 0.1 mm 6 m/S 738 mmHg 78%
    11:00 +14°C° 0.1 mm 6 m/S 739 mmHg 74%
    12:00 +15°C° 0.1 mm 6 m/S 739 mmHg 70%
    13:00 +14°C° 0.2 mm 6 m/S 739 mmHg 73%
    14:00 +14°C° 0.2 mm 6 m/S 739 mmHg 75%
    15:00 +14°C° 0.2 mm 6 m/S 739 mmHg 78%
    16:00 +13°C° 0.1 mm 5 m/S 739 mmHg 80%
    17:00 +12°C° 0.1 mm 5 m/S 739 mmHg 83%
    18:00 +12°C° 0.1 mm 5 m/S 739 mmHg 86%
    19:00 +10°C° 0 mm 5 m/S 739 mmHg 86%
    20:00 +10°C° 0 mm 5 m/S 739 mmHg 87%
    21:00 +9°C° 0 mm 5 m/S 739 mmHg 87%
    22:00 +9°C° 0 mm 5 m/S 739 mmHg 87%
    23:00 +10°C° 0 mm 4 m/S 738 mmHg 87%

    29 September, Sonntag

    Zeit Temperatur Niederschläge Wind Luftdruck Luftfeuchtigkeit
    00:00 +10°C° 0 mm 4 m/S 738 mmHg 87%
    01:00 +10°C° 1 mm 4 m/S 737 mmHg 90%
    02:00 +10°C° 1 mm 3 m/S 737 mmHg 93%
    03:00 +10°C° 1 mm 3 m/S 736 mmHg 96%
    04:00 +11°C° 0.9 mm 3 m/S 736 mmHg 96%
    05:00 +11°C° 0.9 mm 3 m/S 735 mmHg 96%
    06:00 +11°C° 0.9 mm 4 m/S 734 mmHg 96%
    07:00 +11°C° 2.2 mm 4 m/S 733 mmHg 96%
    08:00 +11°C° 2.2 mm 4 m/S 733 mmHg 96%
    09:00 +12°C° 2.2 mm 4 m/S 732 mmHg 96%
    10:00 +13°C° 0.8 mm 4 m/S 732 mmHg 94%
    11:00 +14°C° 0.8 mm 5 m/S 731 mmHg 93%
    12:00 +15°C° 0.8 mm 5 m/S 731 mmHg 91%
    13:00 +15°C° 0.5 mm 4 m/S 730 mmHg 92%
    14:00 +15°C° 0.5 mm 4 m/S 730 mmHg 93%
    15:00 +16°C° 0.5 mm 3 m/S 730 mmHg 93%
    16:00 +14°C° 0.2 mm 4 m/S 730 mmHg 93%
    17:00 +13°C° 0.2 mm 4 m/S 731 mmHg 93%
    18:00 +13°C° 0.2 mm 5 m/S 731 mmHg 93%
    19:00 +12°C° 0 mm 4 m/S 732 mmHg 92%
    20:00 +11°C° 0 mm 3 m/S 733 mmHg 92%
    21:00 +11°C° 0 mm 3 m/S 734 mmHg 92%
    22:00 +10°C° 0 mm 3 m/S 734 mmHg 93%
    23:00 +10°C° 0 mm 2 m/S 735 mmHg 94%
    Mehr zeigen